Goodland, KS

9:37 AM MST on January 19, 2017 (GMT -0700)
Renner-Goodland Municipal

Weather History for KGLD - July, 2013

Change the Weather History Date:

Thursday, July 11, 2013

  Actual Average Record
Temperature  
Mean Temperature 76 °F 76 °F  
Max Temperature 94 °F 90 °F 108 °F (1954)
Min Temperature 58 °F 61 °F 40 °F (1895)
Degree Days  
Heating Degree Days 0 0  
Month to date heating degree days 0 0  
Since 1 June heating degree days 31 37  
Since 1 July heating degree days 0 0  
Cooling Degree Days 11 11  
Month to date cooling degree days 132 114  
Year to date cooling degree days 478 334  
Since 1 June cooling degree days 389 293  
Growing Degree Days 26 (Base 50)    
Moisture  
Dew Point 57 °F    
Average Humidity 56    
Maximum Humidity 84    
Minimum Humidity 28    
Precipitation  
Precipitation 0.00 in 0.11 in 1.53 in (1961)
Month to date precipitation 0.02 1.21  
Year to date precipitation 7.42 10.94  
Snow  
Snow 0.00 in 0.00 in - ()
Month to date snowfall 0.0 0.0  
Since 1 June snowfall 0.0 0.0  
Since 1 July snowfall 0.0 0.0  
Snow Depth 0.00 in    
Sea Level Pressure  
Sea Level Pressure 29.91 in    
Wind  
Wind Speed 12 mph (South)    
Max Wind Speed 26 mph    
Max Gust Speed 35 mph    
Visibility 10 miles    
Events      
T = Trace of Precipitation, MM = Missing Value Source: NWS Daily Summary

Daily Weather History Graph

Daily Weather History Graph

Search for Another Location

Airport or City:

Trip Planner

Search our weather history database for the weather conditions in past years. The results will help you decide how hot, cold, wet, or windy it might be!

Date:

Astronomy

Jul. 11, 2013 Rise Set
Actual Time 5:29 AM MDT 8:14 PM MDT
Civil Twilight 4:58 AM MDT 8:46 PM MDT
Nautical Twilight 4:18 AM MDT 9:25 PM MDT
Astronomical Twilight 3:33 AM MDT 10:10 PM MDT
Moon 8:48 AM MDT (7/11) 9:57 PM MDT (7/11)
Length of Visible Light 15h 48m
Length of Day
14h 44m
Waxing Crescent, 11% of the Moon is Illuminated
Jul 11
Waxing Crescent
Jul 15
First Quarter
Jul 22
Full
Jul 29
Last Quarter
Aug 6
New

Hourly Weather History & Observations

Time (MDT) Temp. Heat Index Dew Point Humidity Pressure Visibility Wind Dir Wind Speed Gust Speed Precip Events Conditions
12:53 AM 66.0 °F - 55.9 °F 70% 30.01 in 10.0 mi West 8.1 mph - N/A   Clear
1:53 AM 69.1 °F - 55.9 °F 63% 30.00 in 10.0 mi SSW 9.2 mph - N/A   Clear
2:53 AM 64.9 °F - 57.0 °F 75% 29.98 in 10.0 mi SSW 6.9 mph - N/A   Clear
3:53 AM 63.0 °F - 55.9 °F 78% 29.99 in 10.0 mi WNW 4.6 mph - N/A   Clear
4:53 AM 60.1 °F - 55.9 °F 86% 29.99 in 10.0 mi WNW 4.6 mph - N/A   Clear
5:53 AM 60.1 °F - 55.0 °F 83% 30.02 in 10.0 mi SE 6.9 mph - N/A   Clear
6:53 AM 66.0 °F - 59.0 °F 78% 30.00 in 10.0 mi SSE 8.1 mph - N/A   Clear
7:53 AM 73.0 °F - 62.1 °F 68% 29.98 in 10.0 mi South 8.1 mph - N/A   Clear
8:53 AM 77.0 °F - 57.9 °F 52% 29.97 in 10.0 mi SSE 9.2 mph - N/A   Clear
9:53 AM 81.0 °F 81.0 °F 57.0 °F 44% 29.97 in 10.0 mi South 12.7 mph - N/A   Clear
10:53 AM 84.0 °F 83.3 °F 57.0 °F 40% 29.96 in 10.0 mi SSE 12.7 mph - N/A   Clear
11:53 AM 88.0 °F 86.7 °F 57.0 °F 35% 29.93 in 10.0 mi South 13.8 mph 20.7 mph N/A   Clear
12:53 PM 90.0 °F 88.6 °F 57.0 °F 33% 29.91 in 10.0 mi South 11.5 mph 20.7 mph N/A   Clear
1:53 PM 91.9 °F 90.6 °F 57.0 °F 31% 29.88 in 10.0 mi South 18.4 mph 32.2 mph N/A   Clear
2:53 PM 93.9 °F 92.0 °F 55.0 °F 27% 29.87 in 10.0 mi SSE 16.1 mph 27.6 mph N/A   Clear
3:53 PM 91.9 °F 90.3 °F 55.9 °F 30% 29.86 in 10.0 mi South 19.6 mph 24.2 mph N/A   Clear
4:53 PM 91.9 °F 90.6 °F 57.0 °F 31% 29.85 in 10.0 mi South 15.0 mph 23.0 mph N/A   Clear
5:53 PM 90.0 °F 88.6 °F 57.0 °F 33% 29.83 in 10.0 mi South 18.4 mph 21.9 mph N/A   Clear
6:53 PM 89.1 °F 87.7 °F 57.0 °F 34% 29.82 in 10.0 mi South 17.3 mph - N/A   Clear
7:53 PM 84.9 °F 84.2 °F 57.9 °F 40% 29.81 in 10.0 mi SSE 13.8 mph - N/A   Clear
8:53 PM 79.0 °F - 59.0 °F 50% 29.82 in 10.0 mi SSE 9.2 mph - N/A   Clear
9:53 PM 79.0 °F - 59.0 °F 50% 29.83 in 10.0 mi South 11.5 mph - N/A   Clear
10:53 PM 80.1 °F 80.7 °F 59.0 °F 48% 29.83 in 10.0 mi South 19.6 mph 34.5 mph N/A   Clear
11:53 PM 77.0 °F - 60.1 °F 56% 29.83 in 10.0 mi South 15.0 mph - N/A   Clear